Location: �chenoz-la-M�line
(47.6009°N, 6.1354°E)
Time: 17:59:57
(UTC+00:00)

Cosmos 1328 - Visible Passes

Search period start: 14 May 2021 00:00
Search period end: 24 May 2021 00:00
Orbit: 525 x 557 km, 82.5° (Epoch: 13 May)

Date Brightness Start Highest point End Pass type
(mag) Time Alt. Az. Time Alt. Az. Time Alt. Az.
14 May 6.6 02:59:36 10° SE 03:02:27 19° E 03:05:17 10° NE visible
15 May 6.5 02:52:29 10° SE 02:55:21 19° E 02:58:13 10° NE visible
16 May 6.4 02:45:22 10° SE 02:48:15 19° E 02:51:09 10° NE visible
17 May 6.4 02:38:15 10° SE 02:41:09 20° E 02:44:04 10° NE visible
18 May 6.3 02:31:07 10° SE 02:34:03 20° E 02:36:59 10° NE visible
19 May 6.3 02:23:59 10° SE 02:26:57 20° E 02:29:54 10° NE visible
20 May 6.2 02:16:51 10° SE 02:19:50 21° E 02:22:49 10° NE visible
21 May 6.1 02:09:44 10° SE 02:12:44 21° E 02:15:43 10° NE visible
22 May 6.1 02:02:36 10° SE 02:05:37 21° E 02:08:38 10° NE visible
23 May 6.0 01:55:28 10° SE 01:58:30 21° E 02:01:32 10° NE visible
